Regional Weather Roundup
Issued by NWS Cleveland, OH

Home | Current Version | Previous Version | Graphics & Text | Print | Product List | Glossary On
Versions: 1 2 3 4 5 6 7 8 9 10 11 12 13 14 15 16 17 18 19 20 21 22 23 24 25 26 27 28 29 30 31 32 33 34 35 36 37 38 39 40 41 42 43 44 45 46 47 48 49 50
000
ASUS41 KCLE 071410
RWRCLE
OHIO REGIONAL WEATHER ROUNDUP
NATIONAL WEATHER SERVICE WILMINGTON, OH
1000 AM EDT TUE JUL 07 2015

NOTE: "FAIR" INDICATES FEW OR NO CLOUDS BELOW 12,000 FEET WITH NO
SIGNIFICANT WEATHER AND/OR OBSTRUCTIONS TO VISIBILITY.

OHZ001>008-015>018-024>027-034-035-043-044-071500-
   NORTHWEST OHIO

CITY           SKY/WX    TMP DP  RH WIND       PRES   REMARKS
DEFIANCE       CLOUDY    78  72  81 SW10      29.88F
FINDLAY        CLOUDY    79  72  79 SW15      29.91S
TOLEDO EXPRESS CLOUDY    78  71  79 SW12      29.87F
TOLEDO EXEC    CLOUDY    80  71  74 SW15      29.89F
LIMA           PTSUNNY   79  71  76 SW14      29.93S
$$

OHZ009>014-019>023-028>033-038-089-071500-
   NORTHEAST OHIO

CITY           SKY/WX    TMP DP  RH WIND       PRES   REMARKS
CLE-HOPKINS    MOSUNNY   79  70  74 S15       29.95F
CLE-LAKEFRONT  SUNNY     81  70  69 S17G25    29.92S
CUY CO. ARPT   PTSUNNY   81  72  74 SW14      29.95S
LORAIN-ELYRIA  MOSUNNY   79  71  76 SW13      29.94F
ASHTABULA      PTSUNNY   76  69  79 S10       29.96F
AKRON-CANTON   PTSUNNY   77  69  76 SW15G21   29.99F
WOOSTER        CLOUDY    75  69  81 S12       29.99F
MANSFIELD      PTSUNNY   77  71  82 S15       29.98F
YOUNGSTOWN     MOSUNNY   76  69  79 S10       29.99F
$$

OHZ042-051>053-060>062-070>072-077>081-071500-
  SOUTHWEST OHIO

CITY           SKY/WX    TMP DP  RH WIND       PRES   REMARKS
CINC-COVINGTON CLOUDY    77  72  84 SW10G16   30.00S
CINC-LUNKEN    CLOUDY    77  72  84 S9        29.99F
HAMILTON       CLOUDY    79  72  79 VRB3      29.99S
DAYTON         PTSUNNY   80  73  79 S15G23    29.97F
WRIGHT-PAT AFB CLOUDY    76  72  86 SW14      29.97S
DAYTON GENERAL CLOUDY    77  71  82 S12       29.98S
WILMINGTON     CLOUDY    75  70  84 SW14      30.00S
$$

OHZ036-037-039>041-045>050-054>059-063>069-073>076-082>088-071500-
  CENTRAL AND SOUTHEAST OHIO

CITY           SKY/WX    TMP DP  RH WIND       PRES   REMARKS
COLUMBUS       PTSUNNY   76  70  82 S13       29.99S
OSU AIRPORT    CLOUDY    77  71  82 S10       29.99S
BOLTON FIELD   CLOUDY    75  72  88 S9        30.00S
RICKENBACK AFB CLOUDY    76  71  84 SW10      29.99F
NEWARK         CLOUDY    77  70  79 S10       30.00S
MARION         CLOUDY    77  71  82 S13       29.97S HAZE
LANCASTER      CLOUDY    77  70  79 SW8       30.01F
ZANESVILLE     CLOUDY    76  69  79 S10       30.02S HAZE
NEW PHILLY     PTSUNNY   75  70  84 S9        30.02R
$$



USA.gov is the U.S. government's official web portal to all federal, state and local government web resources and services.